This demonstration page uses our WeatherBlox Daily Observations layout. Learn more.

Left ArrowRight Arrow

Hourly Observations for July 13, 2017

Temp ( °F °C ) Dew Point ( °F °C ) Humidity (%) Winds ( mph kmh ) Pressure ( in mb ) Visibility ( mi km ) Precip ( " mm )
12:53 am 00:53 Clear 78 25.6 55 12.8 45 45 Calm 29.88 1012 10 16 0.00 0.00
1:53 am 01:53 Clear 73 22.8 54 12.2 51 51 NW 3 6 29.88 1012 10 16 0.00 0.00
2:53 am 02:53 Clear 74 23.3 54 12.2 50 50 Calm 29.89 1012 10 16 0.00 0.00
3:53 am 03:53 Clear 72 22.2 55 12.8 55 55 Calm 29.89 1012 10 16 0.00 0.00
4:53 am 04:53 Clear 70 21.1 56 13.3 61 61 Calm 29.90 1013 10 16 0.00 0.00
5:53 am 05:53 Sunny 68 20 55 12.8 63 63 Calm 29.91 1013 10 16 0.00 0.00
6:53 am 06:53 Sunny 71 21.7 55 12.8 57 57 Calm 29.92 1013 10 16 0.00 0.00
7:53 am 07:53 Sunny 76 24.4 55 12.8 48 48 NNE 3 6 29.93 1013 10 16 0.00 0.00
8:53 am 08:53 Sunny 81 27.2 56 13.3 42 42 Calm 29.93 1014 10 16 0.00 0.00
9:53 am 09:53 Sunny 86 30 55 12.8 35 35 Calm 29.93 1014 10 16 0.00 0.00
10:53 am 10:53 Sunny 91 32.8 51 10.6 26 26 NNE 5 7 29.92 1013 10 16 0.00 0.00
11:53 am 11:53 Sunny 93 33.9 45 7.2 19 19 VRB 6 9 29.92 1013 10 16 0.00 0.00
12:53 pm 12:53 Sunny 95 35 48 8.9 20 20 VRB 7 11 29.91 1013 10 16 0.00 0.00
1:53 pm 13:53 Sunny 97 36.1 47 8.3 18 18 SSE 8 13 29.89 1012 10 16 0.00 0.00
2:53 pm 14:53 Sunny 99 37.2 45 7.2 16 16 S 9 15 29.88 1012 10 16 0.00 0.00
3:53 pm 15:53 Sunny 101 38.3 40 4.4 12 12 S 13 20 29.86 1011 10 16 0.00 0.00
4:53 pm 16:53 Sunny 100 37.8 42 5.6 14 14 SE 13 20 29.86 1011 10 16 0.00 0.00
5:53 pm 17:53 Sunny 100 37.8 32 0 9 9 S 10 17 29.85 1011 10 16 0.00 0.00
6:53 pm 18:53 Sunny 98 36.7 37 2.8 12 12 SSW 7 11 29.84 1011 10 16 0.00 0.00
7:53 pm 19:53 Sunny 95 35 41 5 15 15 S 8 13 29.85 1011 10 16 0.00 0.00
8:53 pm 20:53 Clear 88 31.1 45 7.2 22 22 ESE 7 11 29.87 1012 10 16 0.00 0.00
9:53 pm 21:53 Clear 86 30 46 7.8 25 25 ESE 5 7 29.89 1012 10 16 0.00 0.00
10:53 pm 22:53 Clear 83 28.3 50 10 32 32 Calm 29.91 1013 10 16 0.00 0.00
11:53 pm 23:53 Clear 78 25.6 52 11.1 40 40 Calm 29.92 1013 10 16 0.00 0.00

Powered by AerisWeather